Epoch 2006 Jan. 25.0 TT = JDT 2453760.5 T 2006 Jan. 11.52151 TT MPC q 6.2034918 (2000.0) P Q n 0.04794250 Peri. 8.09917 +0.80843687 -0.58635005 a 7.5045089 Node 27.99577 +0.53371501 +0.69360425 e 0.1733647 Incl. 6.26435 +0.24814939 +0.41845760 P 20.6 From 41 observations 2005 Sept. 30-Nov. 26, mean residual 0".4.
m1 = 9.5 + 5 logΔ + 10.0 log r